Погода в Буртунае

Россия / Республика Дагестан     42°59′23″N   46°37′48″E
темп.,
°C
ветер,
м/с
пор.,
м/с
влажн.,
%
обл.,
%
осадки,
мм/ч
давл.,
гПа
погр.,
м
4 июля, пн
пн400:00+14зюз511625 0.1 1015472
03:00+14зюз611604 0.1 1016480
06:00+15з59633 0.0 1016961
09:00+19зсз694515 0.1 10162056
12:00+22зсз673735 0.0 10162468
15:00+23сз563428 0.0 10152632
18:00+20сз474544 0.0 1015490
21:00+16зюз47500 0.0 1016117
5 июля, вт
вт500:00+15юз44530 0.0 101646
03:00+15юз44530 0.0 101545
06:00+17юз33540 0.0 101560
09:00+22зсз45360 0.0 10151997
12:00+24зсз46335 0.0 10142578
15:00+25ссз563498 0.0 10132684
18:00+19юз2260100 0.0 101453
21:00+19зюз236097 0.1 101649
6 июля, ср
ср600:00+16юз226534 0.0 101621
03:00+15юз22783 0.1 101619
06:00+17зюз11700 0.0 101774
09:00+21ссв325228 0.1 10161208
12:00+22всв224963 0.1 10161504
15:00+22в545632 0.1 10151068
18:00+18в446619 0.0 1016590
21:00+14ююв33810 0.0 101765
7 июля, чт
чт700:00+14ююв23830 0.0 101649
03:00+14ююв23860 0.0 101558
06:00+16юв23791 0.0 1015168
09:00+20в33611 0.0 1014726
12:00+22в555775 0.0 10131072
15:00+22вюв55570 0.0 1013827
18:00+19вюв446690 0.1 1013400
21:00+15ююв238465 0.5 101456
8 июля, пт
пт800:00+15ююв228457 0.0 101321
03:00+15ююв228580 0.0 101338
06:00+17юв237874 0.0 1013138
09:00+21в346187 0.3 1012921
12:00+25в5538100 0.3 10111656
15:00+22вюв454475 0.4 1012827
18:00+20юв346768 0.1 1012249
21:00+17ю3378100 0.3 101343